Doylestown, PA

3:10 AM EST on January 20, 2018 (GMT -0500)
Doylestown

Weather History for KDYL - May, 2013

Change the Weather History Date:

Thursday, May 9, 2013

  Actual Average (KTTN) Record (KTTN)
Temperature  
Mean Temperature 61 °F -  
Max Temperature 70 °F 68 °F 92 °F (1936)
Min Temperature 53 °F 47 °F 34 °F (1947)
Degree Days  
Heating Degree Days 4    
Growing Degree Days 11 (Base 50)    
Moisture  
Dew Point 54 °F    
Average Humidity 85    
Maximum Humidity 100    
Minimum Humidity 54    
Precipitation  
Precipitation 0.26 in - - ()
Sea Level Pressure  
Sea Level Pressure 29.94 in    
Wind  
Wind Speed 1 mph (West)    
Max Wind Speed 7 mph    
Max Gust Speed -    
Visibility 8 miles    
Events Rain    
Averages and records for this station are not official NWS values.
T = Trace of Precipitation, MM = Missing Value Source: NWS Daily Summary

Daily Weather History Graph

Daily Weather History Graph

Search for Another Location

Airport or City:

Trip Planner

Search our weather history database for the weather conditions in past years. The results will help you decide how hot, cold, wet, or windy it might be!

Date:

Astronomy

May. 09, 2013 Rise Set
Actual Time 5:50 AM EDT 8:04 PM EDT
Civil Twilight 5:19 AM EDT 8:34 PM EDT
Nautical Twilight 4:42 AM EDT 9:11 PM EDT
Astronomical Twilight 4:01 AM EDT 9:53 PM EDT
Moon 5:33 AM EDT (5/9) 7:57 PM EDT (5/9)
Length of Visible Light 15h 14m
Length of Day
14h 13m
Waning Crescent, 0% of the Moon is Illuminated
May 9
Waning Crescent
May 9
New
May 18
First Quarter
May 25
Full
May 31
Last Quarter

Hourly Weather History & Observations

Time (EDT) Temp. Dew Point Humidity Pressure Visibility Wind Dir Wind Speed Gust Speed Precip Events Conditions
12:11 AM 55.4 °F 55.4 °F 100% 29.98 in 1.8 mi Calm Calm - N/A   Mostly Cloudy
12:19 AM 57.2 °F 57.2 °F 100% 29.98 in 3.0 mi Calm Calm - N/A   Mostly Cloudy
12:54 AM 55.9 °F 55.9 °F 100% 29.97 in 7.0 mi Calm Calm - 0.01 in Rain Light Rain
1:54 AM 55.9 °F 55.0 °F 97% 29.96 in 10.0 mi Calm Calm - 0.01 in Rain Light Rain
2:54 AM 55.0 °F 54.0 °F 96% 29.94 in 8.0 mi Calm Calm - 0.00 in   Overcast
3:54 AM 55.0 °F 54.0 °F 96% 29.92 in 6.0 mi Calm Calm - N/A   Overcast
4:54 AM 54.0 °F 54.0 °F 100% 29.93 in 4.0 mi Calm Calm - 0.09 in Rain Light Rain
5:26 AM 53.6 °F 53.6 °F 100% 29.93 in 5.0 mi Calm Calm - 0.05 in Rain Light Rain
5:35 AM 53.6 °F 53.6 °F 100% 29.93 in 5.0 mi NE 3.5 mph - 0.07 in Rain Rain
5:54 AM 54.0 °F 54.0 °F 100% 29.93 in 6.0 mi Calm Calm - 0.09 in Rain Light Rain
6:04 AM 53.6 °F 53.6 °F 100% 29.93 in 4.0 mi Calm Calm - 0.00 in Rain Light Rain
6:16 AM 53.6 °F 53.6 °F 100% 29.93 in 5.0 mi Calm Calm - 0.00 in Rain Light Rain
6:52 AM 53.6 °F 53.6 °F 100% 29.93 in 5.0 mi Calm Calm - 0.01 in Rain Light Rain
6:54 AM 54.0 °F 53.1 °F 97% 29.94 in 4.0 mi Calm Calm - 0.02 in Rain Light Rain
7:54 AM 55.0 °F 54.0 °F 96% 29.94 in 7.0 mi NE 3.5 mph - 0.04 in   Overcast
8:54 AM 55.0 °F 54.0 °F 96% 29.96 in 7.0 mi Calm Calm - N/A   Overcast
10:04 AM 57.2 °F 55.4 °F 94% 29.95 in 10.0 mi Calm Calm - N/A   Overcast
10:51 AM 62.6 °F 57.2 °F 82% 29.95 in 10.0 mi Calm Calm - N/A   Mostly Cloudy
10:54 AM 62.1 °F 55.0 °F 78% 29.95 in 10.0 mi Calm Calm - N/A   Mostly Cloudy
11:22 AM 62.6 °F 55.4 °F 77% 29.95 in 10.0 mi Variable 3.5 mph - N/A   Mostly Cloudy
11:33 AM 64.4 °F 55.4 °F 73% 29.95 in 10.0 mi Variable 3.5 mph - N/A   Mostly Cloudy
11:54 AM 62.1 °F 54.0 °F 75% 29.95 in 10.0 mi WNW 3.5 mph - N/A   Overcast
12:10 PM 62.6 °F 53.6 °F 72% 29.94 in 10.0 mi Calm Calm - N/A   Overcast
12:40 PM 64.4 °F 53.6 °F 68% 29.93 in 10.0 mi Calm Calm - N/A   Mostly Cloudy
1:54 PM 63.0 °F 54.0 °F 72% 29.93 in 10.0 mi Variable 3.5 mph - N/A   Overcast
2:54 PM 64.9 °F 53.1 °F 65% 29.92 in 10.0 mi WSW 5.8 mph - 0.00 in   Unknown
3:54 PM 64.9 °F 54.0 °F 68% 29.91 in 10.0 mi West 4.6 mph - N/A   Overcast
4:54 PM 68.0 °F 53.1 °F 59% 29.91 in 10.0 mi Variable 5.8 mph - N/A   Scattered Clouds
5:54 PM 69.1 °F 52.0 °F 54% 29.90 in 10.0 mi WSW 5.8 mph - N/A   Partly Cloudy
6:54 PM 66.9 °F 52.0 °F 59% 29.91 in 10.0 mi WSW 6.9 mph - N/A   Clear
7:54 PM 64.9 °F 53.1 °F 65% 29.93 in 10.0 mi WSW 3.5 mph - N/A   Overcast
8:54 PM 62.1 °F 54.0 °F 75% 29.94 in 10.0 mi WSW 3.5 mph - N/A   Mostly Cloudy
9:54 PM 57.0 °F 54.0 °F 89% 29.96 in 10.0 mi Calm Calm - N/A   Clear
10:54 PM 57.9 °F 54.0 °F 87% 29.96 in 10.0 mi Calm Calm - N/A   Clear
11:54 PM 55.9 °F 54.0 °F 93% 29.96 in 10.0 mi Calm Calm - N/A   Clear